When you browse on this site, cookies collect data to enhance your experience and personalize the content and advertising you see.
Visit our Privacy Policy to learn more. By continuing to use the site, you agree to this use of cookies and data.
  • In Switzerland
  • List of Countries
  • For 7 days
  • Water Temperature
  • Weather Map
  • Weather Widgets
  • user-avatar
    Login

    Hourly Weather Kitzbuhel

    Today, 21 February, Friday

    Time Temperature Precipitation Wind Pressure Humidity
    00:00 +2°C° 0 mm 1 mps 677 mmHg 62%
    01:00 +2°C° 0 mm 1 mps 677 mmHg 59%
    02:00 +2°C° 0.1 mm 1 mps 677 mmHg 62%
    03:00 +2°C° 0.1 mm 1 mps 678 mmHg 65%
    04:00 +2°C° 0.1 mm 1 mps 678 mmHg 67%
    05:00 +2°C° 0.9 mm 1 mps 679 mmHg 75%
    06:00 -1°C° 0.9 mm 2 mps 679 mmHg 83%
    07:00 -1°C° 0 mm 2 mps 680 mmHg 93%
    14:00 +3°C° 0 mm 2 mps 682 mmHg 58%
    15:00 +4°C° 0 mm 1 mps 682 mmHg 56%
    16:00 +4°C° 0 mm 1 mps 682 mmHg 58%
    17:00 +3°C° 0 mm 1 mps 683 mmHg 63%
    18:00 +1°C° 0 mm 1 mps 683 mmHg 68%
    19:00 0°C° 0 mm 1 mps 683 mmHg 73%
    20:00 0°C° 0 mm 1 mps 683 mmHg 71%
    21:00 0°C° 0 mm 1 mps 683 mmHg 70%
    22:00 0°C° 0 mm 1 mps 683 mmHg 69%
    23:00 +1°C° 0 mm 1 mps 684 mmHg 67%

    Tomorrow, 22 February, Saturday

    Time Temperature Precipitation Wind Pressure Humidity
    00:00 +1°C° 0 mm 1 mps 684 mmHg 66%
    01:00 +2°C° 0 mm 1 mps 684 mmHg 64%
    02:00 +2°C° 0 mm 1 mps 684 mmHg 62%
    03:00 +2°C° 0 mm 1 mps 683 mmHg 61%
    04:00 +2°C° 0 mm 1 mps 683 mmHg 59%
    05:00 +2°C° 0 mm 1 mps 683 mmHg 57%
    06:00 +2°C° 0 mm 1 mps 683 mmHg 54%
    07:00 +2°C° 0 mm 1 mps 684 mmHg 52%
    08:00 +4°C° 0 mm 1 mps 684 mmHg 53%
    09:00 +6°C° 0 mm 1 mps 684 mmHg 53%
    10:00 +8°C° 0 mm 1 mps 685 mmHg 53%
    11:00 +9°C° 0 mm 1 mps 684 mmHg 53%
    12:00 +11°C° 0 mm 1 mps 684 mmHg 53%
    13:00 +12°C° 0 mm 1 mps 684 mmHg 52%
    14:00 +12°C° 0 mm 1 mps 683 mmHg 57%
    15:00 +11°C° 0 mm 1 mps 683 mmHg 61%
    16:00 +11°C° 0 mm 1 mps 682 mmHg 65%
    17:00 +9°C° 0 mm 1 mps 682 mmHg 64%
    18:00 +8°C° 0 mm 1 mps 683 mmHg 62%
    19:00 +6°C° 0 mm 2 mps 683 mmHg 61%
    20:00 +6°C° 0 mm 1 mps 683 mmHg 61%
    21:00 +6°C° 0 mm 1 mps 683 mmHg 62%
    22:00 +6°C° 0 mm 1 mps 683 mmHg 62%
    23:00 +5°C° 0 mm 1 mps 683 mmHg 64%

    Day after tomorrow, 23 February, Sunday

    Time Temperature Precipitation Wind Pressure Humidity
    00:00 +5°C° 0 mm 1 mps 683 mmHg 66%
    01:00 +5°C° 0 mm 1 mps 683 mmHg 68%
    02:00 +4°C° 0.1 mm 1 mps 683 mmHg 72%
    03:00 +4°C° 0.1 mm 1 mps 682 mmHg 75%
    04:00 +4°C° 0.1 mm 1 mps 682 mmHg 79%
    05:00 +4°C° 0.1 mm 1 mps 682 mmHg 79%
    06:00 +5°C° 0.1 mm 1 mps 682 mmHg 78%
    07:00 +4°C° 0.1 mm 2 mps 682 mmHg 78%
    08:00 +6°C° 0.1 mm 1 mps 682 mmHg 79%
    09:00 +6°C° 0.1 mm 1 mps 681 mmHg 80%
    10:00 +7°C° 0.1 mm 1 mps 681 mmHg 81%
    11:00 +8°C° 0.1 mm 1 mps 681 mmHg 80%
    12:00 +9°C° 0.1 mm 1 mps 680 mmHg 80%
    13:00 +10°C° 0.1 mm 1 mps 680 mmHg 79%
    14:00 +10°C° 0 mm 1 mps 679 mmHg 80%
    15:00 +10°C° 0 mm 1 mps 679 mmHg 81%
    16:00 +10°C° 0 mm 1 mps 678 mmHg 82%
    17:00 +9°C° 0 mm 1 mps 678 mmHg 83%
    18:00 +8°C° 0 mm 2 mps 678 mmHg 84%
    19:00 +8°C° 0 mm 2 mps 678 mmHg 85%
    20:00 +8°C° 0 mm 2 mps 678 mmHg 85%
    21:00 +7°C° 0 mm 2 mps 677 mmHg 85%
    22:00 +7°C° 0 mm 3 mps 677 mmHg 86%
    23:00 +7°C° 0.3 mm 3 mps 677 mmHg 88%

    24 February, Monday

    Time Temperature Precipitation Wind Pressure Humidity
    00:00 +7°C° 0.3 mm 2 mps 677 mmHg 91%
    01:00 +7°C° 0.3 mm 2 mps 678 mmHg 93%
    02:00 +7°C° 1.1 mm 2 mps 678 mmHg 94%
    03:00 +7°C° 1.1 mm 2 mps 678 mmHg 95%
    04:00 +6°C° 1.1 mm 2 mps 678 mmHg 97%
    05:00 +6°C° 2.2 mm 2 mps 679 mmHg 97%
    06:00 +5°C° 2.2 mm 2 mps 679 mmHg 98%
    07:00 +4°C° 2.2 mm 2 mps 680 mmHg 98%
    08:00 +4°C° 1.6 mm 2 mps 680 mmHg 98%
    09:00 +4°C° 1.6 mm 1 mps 680 mmHg 98%
    10:00 +4°C° 1.6 mm 1 mps 681 mmHg 98%
    11:00 +5°C° 0.9 mm 1 mps 680 mmHg 97%
    12:00 +5°C° 0.9 mm 1 mps 680 mmHg 97%
    13:00 +5°C° 0.9 mm 1 mps 680 mmHg 97%
    14:00 +6°C° 0.2 mm 1 mps 680 mmHg 95%
    15:00 +7°C° 0.2 mm 1 mps 679 mmHg 94%
    16:00 +7°C° 0.2 mm 1 mps 679 mmHg 92%
    17:00 +7°C° 0 mm 1 mps 678 mmHg 90%
    18:00 +6°C° 0 mm 1 mps 678 mmHg 88%
    19:00 +5°C° 0 mm 2 mps 678 mmHg 86%
    20:00 +4°C° 0 mm 2 mps 677 mmHg 84%
    21:00 +4°C° 0 mm 2 mps 677 mmHg 83%
    22:00 +4°C° 0 mm 2 mps 677 mmHg 81%
    23:00 +4°C° 0 mm 2 mps 676 mmHg 81%

    25 February, Tuesday

    Time Temperature Precipitation Wind Pressure Humidity
    00:00 +4°C° 0 mm 2 mps 676 mmHg 80%
    01:00 +4°C° 0 mm 2 mps 675 mmHg 79%
    02:00 +3°C° 0 mm 2 mps 675 mmHg 80%
    03:00 +3°C° 0 mm 2 mps 674 mmHg 81%
    04:00 +3°C° 0 mm 2 mps 674 mmHg 82%
    05:00 +3°C° 0 mm 2 mps 673 mmHg 82%
    06:00 +3°C° 0 mm 2 mps 673 mmHg 83%
    07:00 +3°C° 0 mm 2 mps 673 mmHg 83%
    08:00 +5°C° 0 mm 1 mps 672 mmHg 82%
    09:00 +6°C° 0 mm 1 mps 672 mmHg 81%
    10:00 +8°C° 0 mm 1 mps 672 mmHg 79%
    11:00 +8°C° 0 mm 1 mps 672 mmHg 78%
    12:00 +9°C° 0 mm 1 mps 672 mmHg 77%
    13:00 +9°C° 0 mm 1 mps 671 mmHg 75%
    14:00 +9°C° 0.1 mm 1 mps 671 mmHg 79%
    15:00 +8°C° 0.1 mm 1 mps 670 mmHg 82%
    16:00 +8°C° 0.1 mm 1 mps 669 mmHg 85%
    17:00 +7°C° 0.2 mm 1 mps 669 mmHg 88%
    18:00 +6°C° 0.2 mm 1 mps 669 mmHg 92%
    19:00 +4°C° 0.2 mm 0 mps 669 mmHg 95%
    20:00 +5°C° 0.4 mm 1 mps 668 mmHg 96%
    21:00 +4°C° 0.4 mm 1 mps 668 mmHg 96%
    22:00 +4°C° 0.4 mm 1 mps 668 mmHg 96%
    23:00 +4°C° 1.4 mm 1 mps 668 mmHg 96%

    26 February, Wednesday

    Time Temperature Precipitation Wind Pressure Humidity
    00:00 +3°C° 1.4 mm 1 mps 667 mmHg 96%
    01:00 +2°C° 1.4 mm 2 mps 667 mmHg 96%
    02:00 +2°C° 0.7 mm 2 mps 666 mmHg 95%
    03:00 +2°C° 0.7 mm 1 mps 666 mmHg 95%
    04:00 +1°C° 0.7 mm 1 mps 665 mmHg 94%
    05:00 +1°C° 0.3 mm 1 mps 665 mmHg 94%
    06:00 +1°C° 0.3 mm 1 mps 664 mmHg 94%
    07:00 +1°C° 0.3 mm 1 mps 664 mmHg 94%
    08:00 -1°C° 0.4 mm 2 mps 664 mmHg 90%
    09:00 0°C° 0.4 mm 3 mps 665 mmHg 86%
    10:00 0°C° 0.4 mm 3 mps 665 mmHg 83%
    11:00 -1°C° 0.6 mm 4 mps 665 mmHg 80%
    12:00 -2°C° 0.6 mm 5 mps 665 mmHg 77%
    13:00 -3°C° 0.6 mm 6 mps 665 mmHg 75%
    14:00 -4°C° 0.3 mm 6 mps 665 mmHg 75%
    15:00 -4°C° 0.3 mm 6 mps 665 mmHg 74%
    16:00 -5°C° 0.3 mm 6 mps 665 mmHg 74%
    17:00 -6°C° 0.2 mm 5 mps 666 mmHg 81%
    18:00 -7°C° 0.2 mm 4 mps 666 mmHg 87%
    19:00 -6°C° 0.2 mm 3 mps 667 mmHg 93%
    20:00 -6°C° 0.9 mm 3 mps 668 mmHg 93%
    21:00 -6°C° 0.9 mm 3 mps 668 mmHg 92%
    22:00 -6°C° 0.9 mm 3 mps 669 mmHg 91%
    23:00 -6°C° 0.4 mm 3 mps 669 mmHg 92%
    Show more